Regional Weather Roundup
Issued by NWS

Home | Current Version | Previous Version | Graphics & Text | Print | Product List | Glossary On
Versions: 1 2 3 4 5 6 7 8 9 10 11 12 13 14 15 16 17 18 19 20 21 22 23 24 25 26 27 28 29 30 31 32 33 34 35 36 37 38 39 40 41 42 43 44 45 46 47 48 49 50
000
ASUS43 KOAX 290902
RWRNE

WEATHER ROUNDUP FOR NEBRASKA
NATIONAL WEATHER SERVICE OMAHA NE
400 AM CDT FRI JUL 29 2016

NOTES: SATELLITE DATA IS BEING USED TO AUGMENT CLOUD COVER ABOVE
       12000 FEET.
       "FAIR" INDICATES FEW OR NO CLOUDS BELOW 12,000 FEET WITH NO
       SIGNIFICANT WEATHER AND/OR OBSTRUCTIONS TO VISIBILITY.

  * THESE STATIONS DO NOT REPORT WEATHER SUCH AS RAIN...SNOW OR FOG.

NEZ001>004-019>022-054>056-291000-
NEBRASKA PANHANDLE

CITY           SKY/WX    TMP DP  RH WIND       PRES   REMARKS
SCOTTSBLUFF    CLEAR     60  57  89 NE6       30.16F
ALLIANCE       FOG       53  52  96 W5        30.17S VSB 3/4
CHADRON        CLEAR     56  55  97 W3        30.15S
KIMBALL        CLEAR     60  60  98 W6        30.20F
SIDNEY         CLOUDY    62  60  93 NW3       30.18F
$$

NEZ057>060-069>072-079>082-291000-
SOUTHWEST NEBRASKA

CITY           SKY/WX    TMP DP  RH WIND       PRES   REMARKS
NORTH PLATTE   CLEAR     57  56  96 N3        30.11F
IMPERIAL       PTCLDY    63  61  93 W5        30.13F
LEXINGTON      CLEAR     61  59  94 CALM      30.09S FOG
MCCOOK         MOCLDY    60  59  96 NW6       30.10F
OGALLALA       CLEAR     60  58  92 CALM      30.13F
$$

NEZ005>010-023>029-035>040-094-291000-
NORTH CENTRAL NEBRASKA

CITY           SKY/WX    TMP DP  RH WIND       PRES   REMARKS
AINSWORTH      HVY RAIN  61  61 100 N7        30.12F
BROKEN BOW     CLEAR     60  60 100 W3        30.09F
O`NEILL        LGT RAIN  66  64  94 N6        30.09S
ORD            PTCLDY    63  61  93 NW6       30.06F
THEDFORD       FOG       57  56  97 CALM      30.13F VSB<1/4
$$

NEZ041-046>049-061>064-073>077-083>087-291000-
SOUTH CENTRAL NEBRASKA

CITY           SKY/WX    TMP DP  RH WIND       PRES   REMARKS
GRAND ISLAND   CLOUDY    66  65  96 N3        30.05F
AURORA         CLOUDY    65  65  98 CALM      30.05S
HASTINGS       CLOUDY    66  64  93 N3        30.06F
HEBRON         MOCLDY    65  62  91 CALM      30.01F
HOLDREGE       CLEAR     62  61  96 CALM      30.06F FOG
KEARNEY *      MOCLDY    64   9  11 NW3       30.07F
YORK           CLOUDY    66  64  94 NW3       30.04S
$$

NEZ011>018-030>034-042>045-291000-
NORTHEAST NEBRASKA

CITY           SKY/WX    TMP DP  RH WIND       PRES   REMARKS
NORFOLK        CLOUDY    67  62  84 NE5       30.04F
ALBION         CLOUDY    65  63  90 N5        30.05F
BLAIR          CLOUDY    68  65  89 N5        30.01S
FREMONT        CLOUDY    68  64  86 CALM      30.01F
TEKAMAH        CLOUDY    65  63  93 N6        30.01F
WAYNE          PTCLDY    64  62  96 CALM      30.05S
$$

NEZ050>053-065>068-078-088>093-291000-
SOUTHEAST NEBRASKA

CITY           SKY/WX    TMP DP  RH WIND       PRES   REMARKS
LINCOLN        CLOUDY    68  64  87 CALM      30.01F
OMAHA EPPLEY   CLOUDY    69  64  84 N7        30.00S
BEATRICE       CLEAR     64  62  91 CALM      30.00F
FALLS CITY     CLOUDY    69  67  93 N5        29.97F
NEBRASKA CITY  CLEAR     66  66 100 CALM      30.00S
PLATTSMOUTH    MOCLDY    68  65  90 CALM      30.00F
$$

NEZ044-045-051>053-067-291000-
OMAHA AREA

CITY           SKY/WX    TMP DP  RH WIND       PRES   REMARKS
OMAHA EPPLEY   CLOUDY    69  64  84 N7        30.00S
BLAIR          CLOUDY    68  65  89 N5        30.01S
FREMONT        CLOUDY    68  64  86 CALM      30.01F
MILLARD        CLOUDY    72  64  74 CALM      30.00S
PLATTSMOUTH    MOCLDY    68  65  90 CALM      30.00F
WAHOO          CLOUDY    68  66  92 N3        30.00F
$$




USA.gov is the U.S. government's official web portal to all federal, state and local government web resources and services.